Date_and_time,latitude,longitude,wind_speed,RelWindDirFrom,WindDirFrom,air_pressure,air_temperature,relative_humidity,Temp,platform_speed_wrt_ground,air_pressure_at_mean_sea_level,platform_orientation
2018-08-05 00:00,50.630455,-96.9807633333333,15.2,24.9,239,978.77,19.7,77,21.37,0.0,1004.43,360.0
2018-08-05 00:10,50.630455,-96.9807633333333,4.5,10.3,264,978.45,17.3,92,21.34,0.0,1004.20,360.0
2018-08-05 00:20,50.6304433333333,-96.9807583333333,4.4,6.9,141,978.10,17.1,95,21.33,0.0,1003.85,360.0
2018-08-05 00:30,50.63046,-96.9807633333333,5.8,9.0,95,977.52,17.8,98,21.32,0.0,1003.22,360.0
2018-08-05 00:40,50.6304583333333,-96.980775,1.1,5.3,213,977.90,17.9,93,21.32,0.0,1003.60,360.0
2018-08-05 00:50,50.6304633333333,-96.9807616666667,4.0,6.1,182,977.81,17.7,96,21.31,0.0,1003.51,360.0
2018-08-05 01:00,50.6304616666667,-96.9807633333333,7.1,9.5,160,977.43,17.7,94,21.30,0.0,1003.11,347.4
2018-08-05 01:10,50.63046,-96.9807616666667,5.8,8.6,188,977.47,18.3,86,21.25,0.0,1003.12,347.4
2018-08-05 01:20,50.63046,-96.9807616666667,3.5,6.7,177,977.03,18.2,83,21.21,0.0,1002.67,347.4
2018-08-05 01:30,50.6304583333333,-96.9807616666667,7.1,8.9,190,976.65,18.3,80,21.22,0.0,1002.27,347.4
2018-08-05 01:40,50.6304566666667,-96.9807633333333,6.6,10.9,204,976.61,18.1,82,21.24,0.0,1002.23,347.4
2018-08-05 01:50,50.6304383333333,-96.9807633333333,8.0,10.1,195,976.31,18.1,80,21.24,0.0,1002.05,347.4
2018-08-05 02:00,50.6304433333333,-96.98077,7.6,9.4,184,975.74,18.0,80,21.23,0.0,1001.58,360.0
2018-08-05 02:10,50.6304466666667,-96.9807733333333,6.6,9.5,179,975.33,17.9,81,21.21,0.0,1001.16,360.0
2018-08-05 02:20,50.630445,-96.9807683333333,5.2,6.8,181,975.49,17.7,85,21.22,0.0,1001.30,360.0
2018-08-05 02:30,50.630455,-96.9807816666667,5.6,7.7,169,975.70,17.7,84,21.23,0.0,1001.51,360.0
2018-08-05 02:40,50.6304533333333,-96.9807783333333,5.4,6.7,173,976.16,17.7,88,21.19,0.0,1002.00,360.0
2018-08-05 02:50,50.6304516666667,-96.9807733333333,3.1,4.5,189,976.39,17.7,90,21.19,0.0,1002.23,360.0
2018-08-05 03:00,50.6304516666667,-96.98077,2.9,4.7,165,976.39,17.7,85,21.16,0.0,1002.21,90.0
2018-08-05 03:10,50.6304583333333,-96.9807733333333,2.5,3.8,180,976.31,17.7,85,21.13,0.0,1002.13,90.0
2018-08-05 03:20,50.6304516666667,-96.9807683333333,2.3,3.4,223,976.26,17.8,83,21.12,0.0,1002.07,90.0
2018-08-05 03:30,50.6304516666667,-96.980765,3.8,5.4,220,976.35,17.6,85,21.12,0.0,1002.18,90.0
2018-08-05 03:40,50.630445,-96.9807716666667,3.5,5.5,259,976.54,17.5,86,21.12,0.0,1002.38,90.0
2018-08-05 03:50,50.6304483333333,-96.9807716666667,3.7,6.2,273,976.82,17.3,87,21.12,0.0,1002.68,90.0
2018-08-05 04:00,50.63045,-96.9807666666667,3.4,5.5,277,976.86,17.0,90,21.12,0.0,1002.73,360.0
2018-08-05 04:10,50.6304466666667,-96.980765,2.8,4.8,250,977.02,16.9,90,21.14,0.0,1002.91,360.0
2018-08-05 04:20,50.6304483333333,-96.9807383333333,2.4,3.7,225,977.11,16.7,91,21.13,0.0,1003.02,360.0
2018-08-05 04:30,50.630455,-96.98076,3.1,5.0,224,977.20,16.7,92,21.11,0.0,1003.11,360.0
2018-08-05 04:40,50.6304483333333,-96.9807633333333,4.6,6.2,200,977.27,16.7,92,21.11,0.0,1003.19,360.0
2018-08-05 04:50,50.6304383333333,-96.9807483333333,5.2,7.7,216,977.22,16.8,91,21.10,0.0,1003.13,360.0
2018-08-05 05:00,50.6304483333333,-96.98075,5.4,10.5,272,977.45,16.8,93,21.10,0.0,1003.36,54.7
2018-08-05 05:10,50.63045,-96.980755,5.4,10.8,255,977.59,16.4,95,21.09,0.0,1003.51,54.7
2018-08-05 05:20,50.6304516666667,-96.9807566666667,6.4,9.3,256,977.70,16.6,94,21.08,0.0,1003.63,54.7
2018-08-05 05:30,50.6304533333333,-96.98076,5.8,9.6,246,977.76,16.5,96,21.06,0.0,1003.70,54.7
2018-08-05 05:40,50.6304533333333,-96.9807616666667,5.6,8.4,234,977.74,16.3,98,21.04,0.0,1003.70,54.7
2018-08-05 05:50,50.6304516666667,-96.9807616666667,6.1,8.6,223,977.74,16.4,98,21.05,0.0,1003.71,54.7
2018-08-05 06:00,50.6304533333333,-96.9807616666667,6.5,8.7,233,977.85,16.6,97,21.05,0.0,1003.82,90.0
2018-08-05 06:10,50.630455,-96.9807616666667,4.9,8.1,221,977.78,16.6,97,21.05,0.0,1003.75,90.0
2018-08-05 06:20,50.630455,-96.9807616666667,4.5,6.7,202,977.70,16.5,97,21.03,0.0,1003.68,90.0
2018-08-05 06:30,50.6304533333333,-96.9807616666667,5.2,6.9,192,977.55,16.5,97,21.03,0.0,1003.52,90.0
2018-08-05 06:40,50.6304533333333,-96.9807616666667,4.8,6.4,207,977.54,16.6,95,21.03,0.0,1003.51,90.0
2018-08-05 06:50,50.63046,-96.98081,2.3,4.5,226,977.54,16.6,94,21.02,0.0,1003.51,90.0
2018-08-05 07:00,50.6304566666667,-96.9807733333333,1.6,3.4,197,977.58,16.6,93,21.02,0.0,1003.56,270.0
2018-08-05 07:10,50.630455,-96.9807733333333,3.1,5.6,183,977.53,16.7,91,21.01,0.0,1003.50,270.0
2018-08-05 07:20,50.630445,-96.9807666666667,4.5,6.1,184,977.54,16.7,91,21.01,0.0,1003.51,270.0
2018-08-05 07:30,50.6304816666667,-96.9807733333333,4.4,5.9,166,977.60,16.7,91,21.01,0.0,1003.59,270.0
2018-08-05 07:40,50.6304583333333,-96.9807783333333,4.7,6.2,167,977.68,16.7,90,20.99,0.0,1003.67,270.0
2018-08-05 07:50,50.6304533333333,-96.980775,5.4,6.7,172,977.59,16.7,90,20.96,0.0,1003.56,270.0
2018-08-05 08:00,50.630455,-96.980775,6.4,7.5,183,977.61,16.6,91,20.95,0.0,1003.58,291.5
2018-08-05 08:10,50.630455,-96.9807716666667,5.2,6.9,188,977.56,16.4,94,20.95,0.0,1003.55,291.5
2018-08-05 08:20,50.6304616666667,-96.9807783333333,4.7,6.0,185,977.71,16.3,95,20.96,0.0,1003.70,291.5
2018-08-05 08:30,50.6304566666667,-96.9807683333333,4.7,5.8,184,977.73,16.2,97,20.95,0.0,1003.73,291.5
2018-08-05 08:40,50.6304566666667,-96.980765,4.3,6.1,185,977.75,16.1,98,20.95,0.0,1003.75,291.5
2018-08-05 08:50,50.630455,-96.980765,6.1,7.4,185,977.77,15.9,99,20.95,0.0,1003.78,291.5
2018-08-05 09:00,50.6304533333333,-96.9807633333333,5.5,7.2,202,977.79,15.8,99,20.94,0.0,1003.80,270.0
2018-08-05 09:10,50.630455,-96.9807633333333,4.8,6.1,212,977.84,15.6,99,20.93,0.0,1003.86,270.0
2018-08-05 09:20,50.630425,-96.980775,4.7,6.4,209,977.81,15.5,99,20.92,0.0,1003.83,270.0
2018-08-05 09:30,50.63047,-96.9807566666667,4.7,6.5,212,977.75,15.5,100,20.92,0.0,1003.77,270.0
2018-08-05 09:40,50.6304666666667,-96.9807616666667,4.4,6.6,216,977.88,15.5,100,20.91,0.0,1003.91,270.0
2018-08-05 09:50,50.630465,-96.9807716666667,4.9,6.8,219,977.89,15.4,100,20.91,0.0,1003.92,270.0
2018-08-05 10:00,50.630455,-96.9807566666667,5.3,8.0,227,977.93,15.3,100,20.91,0.0,1003.99,90.0
2018-08-05 10:10,50.6304566666667,-96.9807566666667,5.5,8.0,240,978.02,15.1,100,20.91,0.0,1004.09,90.0
2018-08-05 10:20,50.6304583333333,-96.980755,5.5,7.7,249,977.99,15.0,100,20.90,0.0,1004.07,90.0
2018-08-05 10:30,50.63046,-96.980755,5.8,7.8,252,977.95,15.1,100,20.89,0.0,1004.02,90.0
2018-08-05 10:40,50.63046,-96.9807533333333,6.1,8.0,245,978.06,15.0,100,20.88,0.0,1004.15,90.0
2018-08-05 10:50,50.63046,-96.9807533333333,6.8,8.6,244,978.15,14.9,100,20.86,0.0,1004.25,90.0
2018-08-05 11:00,50.63046,-96.980755,6.2,8.5,252,978.17,15.0,100,20.85,0.0,1004.28,54.7
2018-08-05 11:10,50.63046,-96.980755,5.8,8.1,246,978.30,15.1,100,20.85,0.0,1004.41,54.7
2018-08-05 11:20,50.6304533333333,-96.98075,5.8,8.0,250,978.48,15.1,100,20.85,0.0,1004.60,54.7
2018-08-05 11:30,50.6304683333333,-96.9807916666667,6.0,8.8,251,978.64,15.2,100,20.85,0.0,1004.75,54.7
2018-08-05 11:40,50.6304566666667,-96.9807716666667,6.9,8.7,245,978.84,15.3,100,20.85,0.0,1004.97,54.7
2018-08-05 11:50,50.63045,-96.9807533333333,6.7,9.6,259,978.90,15.6,100,20.83,0.0,1005.02,54.7
2018-08-05 12:00,50.630455,-96.9807483333333,7.0,9.9,274,979.06,15.9,100,20.81,0.0,1005.17,90.0
2018-08-05 12:10,50.6304533333333,-96.9807466666667,6.1,9.5,272,979.13,16.2,100,20.80,0.0,1005.24,90.0
2018-08-05 12:20,50.6304533333333,-96.980745,5.4,8.0,286,979.24,16.3,100,20.79,0.0,1005.34,90.0
2018-08-05 12:30,50.63045,-96.9807233333333,5.2,9.0,289,979.37,16.4,100,20.78,0.0,1005.47,90.0
2018-08-05 12:40,50.6304566666667,-96.9807483333333,5.3,9.6,294,979.62,16.5,100,20.77,0.0,1005.73,90.0
2018-08-05 12:50,50.630455,-96.9807533333333,6.1,10.5,310,979.62,16.8,100,20.76,0.0,1005.71,90.0
2018-08-05 13:00,50.6304533333333,-96.9807583333333,8.6,13.1,308,979.71,17.1,100,20.74,0.0,1005.79,0.0
2018-08-05 13:10,50.6304516666667,-96.98076,8.0,13.4,308,979.93,17.2,100,20.76,0.0,1006.01,0.0
2018-08-05 13:20,50.6304533333333,-96.9807616666667,8.2,12.8,310,980.03,17.4,100,20.77,0.0,1006.09,0.0
2018-08-05 13:30,50.6304533333333,-96.9807766666667,8.4,12.4,306,980.12,17.6,100,20.76,0.0,1006.18,0.0
2018-08-05 13:40,50.6304483333333,-96.980765,8.6,14.9,311,980.25,17.8,100,20.75,0.0,1006.29,0.0
2018-08-05 13:50,50.630445,-96.98076,9.0,15.0,314,980.37,17.9,99,20.76,0.0,1006.39,0.0
2018-08-05 14:00,50.6304433333333,-96.9807616666667,11.0,17.2,324,980.46,17.8,99,20.77,0.0,1006.48,360.0
2018-08-05 14:10,50.630445,-96.9807633333333,10.0,16.2,324,980.60,17.6,100,20.78,0.0,1006.62,360.0
2018-08-05 14:20,50.6304433333333,-96.9807616666667,10.1,19.5,316,980.75,17.4,99,20.78,0.0,1006.78,360.0
2018-08-05 14:30,50.630445,-96.9807616666667,10.7,16.7,317,980.96,17.5,96,20.77,0.0,1006.99,360.0
2018-08-05 14:40,50.6304433333333,-96.9807633333333,9.9,16.3,313,981.25,17.5,94,20.74,0.0,1007.27,360.0
2018-08-05 14:50,50.630445,-96.980765,12.0,18.4,306,981.32,17.4,94,20.77,0.0,1007.33,360.0
2018-08-05 15:00,50.630445,-96.980765,12.0,19.2,307,981.47,17.4,91,20.78,0.0,1007.48,216.6
2018-08-05 15:10,50.630445,-96.980765,10.8,17.1,312,981.69,17.5,90,20.78,0.0,1007.70,216.6
2018-08-05 15:20,50.6304466666667,-96.980765,11.5,18.1,309,981.91,17.1,91,20.79,0.0,1007.93,216.6
2018-08-05 15:30,50.630445,-96.9807633333333,13.2,19.7,305,982.05,17.0,89,20.79,0.0,1008.07,216.6
2018-08-05 15:40,50.6304466666667,-96.9807633333333,11.6,18.2,313,982.27,17.2,87,20.80,0.0,1008.29,216.6
2018-08-05 15:50,50.6304466666667,-96.9807633333333,12.4,19.7,312,982.37,17.4,84,20.81,0.0,1008.38,216.6
2018-08-05 16:00,50.6304466666667,-96.9807633333333,12.9,19.8,320,982.45,17.3,84,20.82,0.0,1008.48,228.3
2018-08-05 16:10,50.6304483333333,-96.9807633333333,11.6,18.5,311,982.61,17.5,83,20.83,0.0,1008.64,228.3
2018-08-05 16:20,50.6304433333333,-96.9807666666667,12.0,19.1,301,982.75,17.5,81,20.81,0.0,1008.79,228.3
2018-08-05 16:30,50.6304433333333,-96.9807616666667,11.3,21.8,314,982.84,17.8,79,20.82,0.0,1008.86,228.3
2018-08-05 16:40,50.6304416666667,-96.9807566666667,11.7,21.6,312,982.97,17.8,78,20.82,0.0,1009.00,228.3
2018-08-05 16:50,50.6304383333333,-96.980765,10.7,18.0,311,983.13,18.0,76,20.84,0.0,1009.15,228.3
2018-08-05 17:00,50.6304483333333,-96.9807616666667,11.4,18.9,305,983.29,18.1,74,20.85,0.0,1009.31,360.0
2018-08-05 17:10,50.6304483333333,-96.98076,10.7,17.8,313,983.44,18.1,74,20.86,0.0,1009.48,360.0
2018-08-05 17:20,50.6304566666667,-96.9807583333333,13.0,20.8,311,983.47,18.0,75,20.87,0.0,1009.52,360.0
2018-08-05 17:30,50.6304466666667,-96.9807733333333,13.8,21.0,312,983.59,17.8,75,20.88,0.0,1009.64,360.0
2018-08-05 17:40,50.6304633333333,-96.9807866666667,13.2,21.4,306,983.65,18.0,74,20.88,0.0,1009.69,360.0
2018-08-05 17:50,50.6304533333333,-96.9807616666667,12.2,18.9,309,983.73,18.0,73,20.87,0.0,1009.78,360.0
2018-08-05 18:00,50.6304533333333,-96.9807583333333,9.9,19.1,311,983.93,18.4,72,20.84,0.0,1009.96,14.5
2018-08-05 18:10,50.6304533333333,-96.980755,13.3,20.6,304,983.94,18.3,70,20.86,0.0,1009.96,14.5
2018-08-05 18:20,50.6304533333333,-96.9807566666667,10.4,17.9,313,984.23,18.4,70,20.89,0.0,1010.25,14.5
2018-08-05 18:30,50.6304533333333,-96.980755,13.6,20.8,321,984.24,18.3,70,20.91,0.0,1010.26,14.5
2018-08-05 18:40,50.630455,-96.980765,11.9,17.7,318,984.49,18.3,71,20.90,0.0,1010.51,14.5
2018-08-05 18:50,50.630455,-96.980765,12.8,18.0,325,984.55,18.2,70,20.88,0.0,1010.57,14.5
2018-08-05 19:00,50.6304516666667,-96.9807666666667,13.3,18.5,322,984.65,18.4,69,20.89,0.0,1010.66,360.0
2018-08-05 19:10,50.63045,-96.9807633333333,12.4,17.6,328,984.84,18.2,70,20.91,0.0,1010.87,360.0
2018-08-05 19:20,50.6304533333333,-96.9807633333333,11.5,18.2,326,985.08,18.2,71,20.89,0.0,1011.12,360.0
2018-08-05 19:30,50.6304533333333,-96.9807633333333,13.3,18.2,319,985.07,18.0,71,20.90,0.0,1011.12,360.0
2018-08-05 19:40,50.6304516666667,-96.9807633333333,13.4,20.9,314,985.17,18.2,68,20.93,0.0,1011.21,360.0
2018-08-05 19:50,50.6304516666667,-96.9807633333333,12.0,18.0,323,985.39,18.1,69,20.93,0.0,1011.42,360.0
2018-08-05 20:00,50.6304533333333,-96.9807633333333,13.8,19.6,332,985.51,18.1,69,20.92,0.0,1011.55,311.7
2018-08-05 20:10,50.6304516666667,-96.9807633333333,10.6,16.5,324,985.78,17.8,70,20.90,0.0,1011.83,311.7
2018-08-05 20:20,50.6304483333333,-96.9807683333333,10.8,17.5,317,985.93,17.7,70,20.90,0.0,1012.00,311.7
2018-08-05 20:30,50.6304583333333,-96.9807733333333,9.7,16.0,324,986.08,17.8,70,20.92,0.0,1012.15,311.7
2018-08-05 20:40,50.6304533333333,-96.98077,12.2,18.2,313,986.08,17.5,70,20.91,0.0,1012.17,311.7
2018-08-05 20:50,50.6304516666667,-96.98077,12.1,18.5,326,986.12,17.4,70,20.89,0.0,1012.20,311.7
2018-08-05 21:00,50.630445,-96.9808,11.7,18.1,324,986.38,17.4,71,20.90,0.0,1012.48,247.3
2018-08-05 21:10,50.6304483333333,-96.9807733333333,11.4,17.6,322,986.58,17.2,71,20.91,0.0,1012.69,247.3
2018-08-05 21:20,50.630445,-96.9807616666667,9.8,15.9,324,986.73,17.1,73,20.88,0.0,1012.87,247.3
2018-08-05 21:30,50.6304433333333,-96.98076,10.2,16.3,325,986.80,17.2,71,20.86,0.0,1012.92,247.3
2018-08-05 21:40,50.6304533333333,-96.9807583333333,8.1,14.8,319,986.93,17.2,71,20.86,0.0,1013.06,247.3
2018-08-05 21:50,50.6304516666667,-96.9807566666667,8.2,14.1,332,987.10,17.4,70,20.86,0.0,1013.22,247.3
2018-08-05 22:00,50.6304533333333,-96.9807583333333,10.7,16.4,324,987.08,17.2,69,20.87,0.0,1013.23,90.0
2018-08-05 22:10,50.6304533333333,-96.9807616666667,8.2,13.1,327,987.31,17.1,70,20.86,0.0,1013.47,90.0
2018-08-05 22:20,50.6304533333333,-96.9807616666667,9.4,14.5,342,987.35,17.1,70,20.85,0.0,1013.51,90.0
2018-08-05 22:30,50.6304516666667,-96.9807666666667,9.8,14.1,344,987.37,17.2,71,20.83,0.0,1013.53,90.0
2018-08-05 22:40,50.6304516666667,-96.98077,9.1,15.6,347,987.50,17.2,72,20.80,0.0,1013.67,90.0
2018-08-05 22:50,50.6304483333333,-96.9807683333333,10.8,16.9,346,987.46,17.1,72,20.80,0.0,1013.64,90.0
2018-08-05 23:00,50.6304433333333,-96.9807833333333,9.9,15.3,348,987.60,17.0,72,20.80,0.0,1013.80,229.4
2018-08-05 23:10,50.6304566666667,-96.9807716666667,11.0,16.0,345,987.58,16.8,73,20.79,0.0,1013.79,229.4
2018-08-05 23:20,50.6304533333333,-96.980765,12.5,17.5,354,987.63,16.7,74,20.78,0.0,1013.84,229.4
2018-08-05 23:30,50.6304533333333,-96.9807716666667,9.9,15.1,348,987.72,16.7,74,20.78,0.0,1013.93,229.4
2018-08-05 23:40,50.6304533333333,-96.98077,10.3,15.5,338,987.62,16.5,74,20.78,0.0,1013.83,229.4
